Regional Weather Roundup
Issued by NWS

Home | Current Version | Previous Version | Text Only | Print | Product List | Glossary On
Versions: 1 2 3 4 5 6 7 8 9 10 11 12 13 14 15 16 17 18 19 20 21 22 23 24 25 26 27 28 29 30 31 32 33 34 35 36 37 38 39 40 41 42 43 44 45 46 47 48 49 50
000
ASUS43 KBIS 211610
RWRND

NORTH DAKOTA REGIONAL WEATHER ROUNDUP
NATIONAL WEATHER SERVICE BISMARCK ND
1100 AM CDT THU SEP 21 2017

NOTE: "FAIR" INDICATES FEW OR NO CLOUDS BELOW 12,000 FEET WITH NO
SIGNIFICANT WEATHER AND/OR OBSTRUCTIONS TO VISIBILITY.


NDZ001>003-009>011-017-211700-
NORTHWEST NORTH DAKOTA

CITY           SKY/WX    TMP DP  RH WIND       PRES   REMARKS
WILLISTON      CLOUDY    52  43  71 CALM      29.71R
MINOT          CLOUDY    61  43  51 CALM      29.70R
MINOT AFB      CLOUDY    59  44  56 SE8       29.69R
$$

NDZ018>021-031>035-040>046-211700-
SOUTHWEST NORTH DAKOTA

CITY           SKY/WX    TMP DP  RH WIND       PRES   REMARKS
BISMARCK       SUNNY     70  49  47 S23G31    29.68F
DICKINSON      PTSUNNY   59  37  44 NW15      29.68R
GARRISON         N/A     59  46  62 E7        29.68S
HETTINGER ARPT SUNNY     65  40  39 VRB5      29.68F
$$

NDZ004>008-012>016-024-026-027-054-211700-
NORTHEAST NORTH DAKOTA

CITY           SKY/WX    TMP DP  RH WIND       PRES   REMARKS
GRAND FORKS    MOSUNNY   68  51  54 S18       29.80F
GRND FRKS AFB  SUNNY     67  49  51 S21       29.80S
DEVILS LAKE    MOSUNNY   61  49  64 S15       29.76S
$$

NDZ022-023-025-028>030-036>039-047>053-211700-
SOUTHEAST NORTH DAKOTA

CITY           SKY/WX    TMP DP  RH WIND       PRES   REMARKS
FARGO          SUNNY     69  46  43 SE18G37   29.81F
JAMESTOWN      SUNNY     67  48  50 S23G32    29.76F
$$





USA.gov is the U.S. government's official web portal to all federal, state and local government web resources and services.